Location: Iesi
(43.5167°N, 13.2333°E)
Time: 18:46:10
(UTC+00:00)

Meteor 1-11 Rocket - Pass Details

Date: 08 August 2020
Orbit: 832 x 915 km, 81.2° (Epoch: 23 September)

Event Time Altitude Azimuth Distance (km) Brightness Sun altitude
Exits shadow 22:09:14 82° 354° (N) 872 3.7 -28.9°
Drops below altitude 10° 22:14:42 10° 10° (N) 2,528 6.9 -29.2°
Sets 22:17:11 0° 11° (N) 3,483 7.8 -29.3°
